Flag for Germany Weather past 2 weeks in Höxter, North Rhine-Westphalia, Germany

Now
76 °F

Sunny.


Feels Like: 78 °F
Forecast: 54 / 81 °F
Wind: 2 mph from Northwest

Location: Bad Lippspringe

Current Time: Jul 31, 2014 at 8:19:43 PM

Latest Report: Jul 31, 2014 at 7:00 PM


Visibility: 15 mi

Pressure: 29.93 "Hg

Humidity: 39%

Dew point: 49 °F

Location of HöxterLocation

Historic Weather in Höxter — Graph

°F

Höxter temperature yesterday

Maximum temperature yesterday: 72 °F (at 5:00 PM)
Minimum temperature yesterday: 64 °F (at 9:00 AM)
Average temperature yesterday: 67 °F

Past Weeks' High & Low Weather Summary

 TemperatureHumidityPressure
High90 °F (Jul 19, 4:00 PM)98% (Jul 26, 5:00 AM)30.19 "Hg (Jul 26, 5:00 AM)
Low56 °F (Jul 17, 6:00 AM)28% (Jul 19, 3:00 PM)29.74 "Hg (Jul 29, 7:00 PM)
Average70 °F72%29.95 "Hg
* Reported Jul 16 7:00 PM — Jul 31 7:00 PM, Höxter, Weather by CustomWeather, © 2014

Note: Actual official high and low records may vary slightly from our data, if they occured in-between our weather recording intervals... More about our weather records

Advertising

Höxter weather history for previous 24 hours

 ConditionsComfort  
Time TempWeatherWind HumidityBarometerVisibility
7:00 PM
Jul 31
76 °FSunny.2 mph39%29.93 "Hg15 mi
6:00 PM76 °FSunny.2 mph41%29.94 "Hg12 mi
5:00 PM75 °FSunny.1 mph41%29.95 "Hg11 mi
4:00 PM75 °FSunny.2 mph42%29.96 "Hg11 mi
3:00 PM73 °FPassing clouds.2 mph51%29.97 "Hg9 mi
2:00 PM72 °FSunny.2 mph53%29.98 "Hg7 mi
1:00 PM70 °FSunny.2 mph57%29.99 "Hg7 mi
12:00 PM68 °FPassing clouds.3 mph67%30.01 "Hg8 mi
11:00 AM67 °FPartly sunny.3 mph68%30.01 "Hg9 mi
10:00 AM63 °FOvercast.2 mph77%30.02 "Hg11 mi
9:00 AM62 °FOvercast.1 mph81%30.01 "Hg9 mi
8:00 AM60 °FPassing clouds.2 mph90%30.01 "Hg5 mi
7:00 AM60 °FFog.2 mph95%30.00 "Hg3 mi
6:00 AM59 °FFog.1 mph94%29.99 "Hg4 mi
5:00 AM60 °FOvercast.1 mph92%29.98 "Hg6 mi
4:00 AM60 °FOvercast.1 mph95%29.98 "Hg7 mi
3:00 AM60 °FOvercast.1 mph94%29.97 "Hg7 mi
2:00 AM60 °FPassing clouds.1 mph94%29.96 "Hg7 mi
1:00 AM62 °FLight rain. Overcast.1 mph90%29.95 "Hg12 mi
12:00 AM62 °FOvercast.1 mph92%29.95 "Hg10 mi
11:00 PM
Jul 30
64 °FOvercast.1 mph87%29.94 "Hg17 mi
10:00 PM67 °FOvercast.1 mph75%29.93 "Hg19 mi
9:00 PM69 °FOvercast.1 mph69%29.90 "Hg22 mi
8:00 PM70 °FOvercast.2 mph68%29.88 "Hg22 mi
Weather by CustomWeather, © 2014

See weather overviewHow to use our weather pages